Bloomington, IN

9:02 PM EDT on May 20, 2018 (GMT -0400)
Monroe County

Weather History for KBMG - December, 2009

Change the Weather History Date:

Tuesday, December 15, 2009

  Actual Average Record
Temperature  
Mean Temperature 29 °F 32 °F  
Max Temperature 40 °F 40 °F 61 °F (2011)
Min Temperature 18 °F 24 °F -1 °F (2010)
Degree Days  
Heating Degree Days 36 33  
Month to date heating degree days 497 463  
Since 1 July heating degree days 1527 1519  
Cooling Degree Days 0 0  
Month to date cooling degree days 0 0  
Year to date cooling degree days 739 927  
Moisture  
Dew Point 22 °F    
Average Humidity 74    
Maximum Humidity 85    
Minimum Humidity 62    
Precipitation  
Precipitation 0.00 in 0.09 in 0.72 in (2007)
Month to date precipitation 2.58 1.54  
Year to date precipitation 49.42 45.55  
Sea Level Pressure  
Sea Level Pressure 30.30 in    
Wind  
Wind Speed 7 mph (NW)    
Max Wind Speed 13 mph    
Max Gust Speed 20 mph    
Visibility 9 miles    
Events      
T = Trace of Precipitation, MM = Missing Value Source: NWS Daily Summary

Daily Weather History Graph

Daily Weather History Graph

Search for Another Location

Airport or City:

Astronomy

Dec. 15, 2009 Rise Set
Actual Time 7:58 AM EST 5:24 PM EST
Civil Twilight 7:28 AM EST 5:54 PM EST
Nautical Twilight 6:55 AM EST 6:28 PM EST
Astronomical Twilight 6:22 AM EST 7:01 PM EST
Moon 7:24 AM EST (12/15) 4:38 PM EST (12/15)
Length of Visible Light 10h 26m
Length of Day
9h 25m
Waning Crescent, 1% of the Moon is Illuminated
Dec 15
Waning Crescent
Dec 16
New
Dec 24
First Quarter
Dec 31
Full
Jan 7
Last Quarter

Hourly Weather History & Observations

Time (EST) Temp. Windchill Dew Point Humidity Pressure Visibility Wind Dir Wind Speed Gust Speed Precip Events Conditions
12:24 AM 39.2 °F 31.6 °F 35.6 °F 87% 30.05 in 10.0 mi WNW 12.7 mph - N/A   Overcast
12:53 AM 39.0 °F 32.8 °F 34.0 °F 82% 30.06 in 10.0 mi WNW 9.2 mph - N/A   Overcast
1:44 AM 37.4 °F 30.8 °F 30.2 °F 75% 30.07 in 10.0 mi WNW 9.2 mph - N/A   Overcast
1:53 AM 37.0 °F 30.4 °F 30.9 °F 79% 30.09 in 10.0 mi WNW 9.2 mph - N/A   Overcast
2:53 AM 36.0 °F 30.3 °F 30.0 °F 79% 30.11 in 10.0 mi NW 6.9 mph 16.1 mph N/A   Overcast
3:51 AM 35.6 °F 27.5 °F 30.2 °F 81% 30.12 in 5.0 mi WNW 11.5 mph 16.1 mph N/A   Haze
3:53 AM 35.1 °F 27.4 °F 30.0 °F 82% 30.13 in 5.0 mi WNW 10.4 mph 16.1 mph N/A   Haze
4:53 AM 33.1 °F 25.5 °F 28.0 °F 82% 30.16 in 5.0 mi WNW 9.2 mph - N/A   Haze
5:18 AM 33.8 °F 25.8 °F 26.6 °F 75% 30.15 in 8.0 mi WNW 10.4 mph 18.4 mph N/A   Overcast
5:53 AM 32.0 °F 24.8 °F 25.0 °F 75% 30.18 in 10.0 mi NW 8.1 mph - N/A   Overcast
6:53 AM 32.0 °F 26.4 °F 26.1 °F 79% 30.19 in 8.0 mi WNW 5.8 mph - N/A   Overcast
7:53 AM 30.0 °F 22.4 °F 25.0 °F 82% 30.24 in 6.0 mi NW 8.1 mph - N/A   Haze
8:53 AM 28.9 °F 21.9 °F 24.1 °F 82% 30.28 in 5.0 mi WNW 6.9 mph - N/A   Haze
9:53 AM 28.0 °F 19.3 °F 23.0 °F 81% 30.32 in 6.0 mi WNW 9.2 mph - N/A   Haze
10:53 AM 27.0 °F 18.7 °F 21.9 °F 81% 30.35 in 8.0 mi NW 8.1 mph - N/A   Overcast
11:15 AM 26.6 °F 17.5 °F 21.2 °F 80% 30.33 in 8.0 mi WNW 9.2 mph - N/A   Overcast
11:22 AM 26.6 °F 16.8 °F 21.2 °F 80% 30.33 in 8.0 mi WNW 10.4 mph - N/A   Overcast
11:53 AM 26.1 °F 17.6 °F 21.0 °F 81% 30.34 in 8.0 mi WNW 8.1 mph - N/A   Overcast
12:53 PM 26.1 °F 15.6 °F 21.0 °F 81% 30.35 in 8.0 mi WNW 11.5 mph 16.1 mph N/A   Overcast
1:53 PM 26.1 °F 17.6 °F 19.0 °F 75% 30.37 in 10.0 mi NW 8.1 mph 16.1 mph N/A   Overcast
2:53 PM 27.0 °F 20.5 °F 18.0 °F 69% 30.39 in 10.0 mi NW 5.8 mph - N/A   Overcast
3:42 PM 28.4 °F 22.2 °F 17.6 °F 64% 30.38 in 10.0 mi NNW 5.8 mph - N/A   Scattered Clouds
3:53 PM 28.9 °F 21.9 °F 18.0 °F 64% 30.41 in 10.0 mi Variable 6.9 mph - N/A   Mostly Cloudy
4:21 PM 28.4 °F 19.1 °F 15.8 °F 59% 30.40 in 10.0 mi NW 10.4 mph - N/A   Scattered Clouds
4:53 PM 27.0 °F 18.7 °F 15.1 °F 61% 30.43 in 10.0 mi NW 8.1 mph - N/A   Clear
5:53 PM 25.0 °F 18.1 °F 14.0 °F 63% 30.45 in 10.0 mi NW 5.8 mph - N/A   Clear
6:53 PM 23.0 °F 17.0 °F 12.9 °F 65% 30.48 in 10.0 mi NW 4.6 mph - N/A   Clear
7:53 PM 23.0 °F 17.0 °F 12.0 °F 63% 30.49 in 10.0 mi NW 4.6 mph - N/A   Clear
9:53 PM 19.9 °F 14.9 °F 10.0 °F 65% 30.52 in 10.0 mi WNW 3.5 mph - N/A   Clear
10:53 PM 19.0 °F 11.1 °F 9.0 °F 65% 30.54 in 10.0 mi WNW 5.8 mph - N/A   Clear
11:53 PM 18.0 °F 11.1 °F 7.0 °F 62% 30.54 in 10.0 mi NW 4.6 mph - N/A   Clear